User: anonymous   Login
Location: CCZU
(31.6840°N, 119.9550°E)
Time: 13:39:28
(UTC+08:00)
Language:

Hubble Space Telescope - Orbit

View from above orbital plane
View from above orbital plane
View from above satellite
View from above satellite

Ground track
Ground track

The orbit data is extracted from the following two-line orbital elements,

1 20580U 90037B   22332.84738928  .00001852  00000-0  96485-4 0  9997
2 20580  28.4683 158.9697 0002669  16.9131 112.4552 15.11318559591371
Epoch (UTC): 28 November 2022 20:20:14
Eccentricity: 0.0002669
inclination: 28.4683°
perigee height: 530 km
apogee height: 534 km
right ascension of ascending node: 158.9697°
argument of perigee: 16.9131°
revolutions per day: 15.11318559
mean anomaly at epoch: 112.4552°
orbit number at epoch: 59137

The dashed part of the orbit path shows where the satellite is in the earth's shadow,  

DLR